星链-2738 (STARLINK-2738 )

导读

STARLINK-2738是美国SpaceX公司星链(Starlink)卫星互联网星座中的一颗卫星,于2021年5月26日发射入轨。星链项目计划在低地轨道部署上万颗卫星,旨在为全球偏远及网络覆盖薄弱地区提供高速低延迟的宽带互联网服务,目前该星座已完成数千颗卫星部署,服务覆盖全球多个国家和地区。

基本信息
目录编号:
48668
目录名称:
STARLINK-2738
国际标识:
2021-044AG
轨道中心:
EARTH
卫星名称:
星链-2738
卫星全名:
星链-2738 (STARLINK-2738 )
卫星状态:
在轨 (已飞行1849 天)
发射日期:
2021-05-26 UTC
国别 :
美国 (US)
星等 :
--
轨道信息
数据来源 国际轨道数据
星历时间: 2026-06-18T05:52:22+0800
16小时前
查看轨道信息
半长轴: 6848.88km
偏心率: 0.0001169
轨道倾角: 53.162°
近地点辐角 82.145°
升交点赤经 357.704°
平近点角 277.968°
近地点: 469.942km
远地点: 471.544km
周期: 94.013分钟
每日圈数: 15.316992
详细信息
固有亮度:
5
最大亮度:
2.5
卫星平台:
Starlink V1.0
覆盖范围:
全球
运营商:
太空探索技术公司
运营商所在国:
美国
制造商(研发单位):
太空探索技术公司
制造商所在国:
美国
使用方式:
暂无
卫星简介
星链(Starlink)计划是由太空探索技术公司(SpaceX)提出的一个巨型低轨卫星互联网星座项目,计划在2019年至2024年间在太空搭建由约1.2万颗卫星组成的“星链”网络,其中1584颗将部署在地球上空550千米处的近地轨道,并从2020年开始工作。该卫星仍在工作。
2D轨道图
3D轨道图
轨道高度分析图
轨道倾角分析图
轨道综合分析图
查看轨道综合分析图